Location: Newark
(45.5167°N, 11.1667°E)
Time: 05:57:39
(UTC+00:00)

Explorer 7 - Pass Details

Date: 19 December 2019
Orbit: 485 x 679 km, 50.3° (Epoch: 24 January)

Event Time Altitude Azimuth Distance (km) Brightness Sun altitude
Rises 10:33:20 0° 195° (SSW) 2,830 11.6 20.5°
Reaches altitude 10° 10:36:07 10° 176° (S) 1,971 11.9 20.6°
Maximum altitude 10:39:16 19° 132° (SE) 1,526 10.1 20.7°
Drops below altitude 10° 10:42:32 10° 89° (E) 2,055 9.9 20.7°
Sets 10:45:30 0° 71° (ENE) 2,997 10.5 20.8°
